When you browse on this site, cookies collect data to enhance your experience and personalize the content and advertising you see.
Visit our Privacy Policy to learn more. By continuing to use the site, you agree to this use of cookies and data.
  • In Austria
  • List of Countries
  • For 7 days
  • Water Temperature
  • Weather Map
  • News
  • Weather Widgets
  • user-avatar
    Login

    Hourly Weather Zasillya

    Today, 23 October, Wednesday

    Time Temperature Precipitation Wind Pressure Humidity
    00:00 +14°C° 0 mm 1 mps 763 mmHg 53%
    01:00 +13°C° 0 mm 1 mps 763 mmHg 54%
    02:00 +13°C° 0 mm 1 mps 763 mmHg 56%
    03:00 +13°C° 0 mm 1 mps 763 mmHg 57%
    04:00 +12°C° 0 mm 1 mps 763 mmHg 59%
    05:00 +12°C° 0 mm 1 mps 763 mmHg 60%
    06:00 +13°C° 0 mm 1 mps 763 mmHg 57%
    07:00 +13°C° 0 mm 0 mps 763 mmHg 54%
    08:00 +14°C° 0 mm 0 mps 763 mmHg 52%
    09:00 +16°C° 0 mm 0 mps 763 mmHg 47%
    10:00 +17°C° 0 mm 0 mps 763 mmHg 43%
    11:00 +19°C° 0 mm 0 mps 763 mmHg 38%
    12:00 +20°C° 0 mm 0 mps 762 mmHg 36%
    13:00 +21°C° 0 mm 0 mps 762 mmHg 34%
    14:00 +23°C° 0 mm 1 mps 762 mmHg 33%
    15:00 +22°C° 0 mm 1 mps 762 mmHg 36%
    16:00 +21°C° 0 mm 1 mps 761 mmHg 39%
    17:00 +19°C° 0 mm 1 mps 761 mmHg 42%
    18:00 +18°C° 0 mm 1 mps 761 mmHg 44%
    19:00 +18°C° 0 mm 1 mps 761 mmHg 46%
    20:00 +16°C° 0 mm 2 mps 761 mmHg 47%
    21:00 +16°C° 0 mm 2 mps 761 mmHg 48%
    22:00 +15°C° 0 mm 1 mps 761 mmHg 49%
    23:00 +15°C° 0 mm 1 mps 761 mmHg 50%

    Tomorrow, 24 October, Thursday

    Time Temperature Precipitation Wind Pressure Humidity
    00:00 +14°C° 0 mm 1 mps 761 mmHg 51%
    01:00 +14°C° 0 mm 1 mps 761 mmHg 52%
    02:00 +13°C° 0 mm 0 mps 761 mmHg 53%
    03:00 +12°C° 0 mm 0 mps 761 mmHg 54%
    04:00 +12°C° 0 mm 0 mps 761 mmHg 55%
    05:00 +12°C° 0 mm 0 mps 761 mmHg 56%
    06:00 +13°C° 0 mm 0 mps 761 mmHg 53%
    07:00 +14°C° 0 mm 0 mps 761 mmHg 51%
    08:00 +14°C° 0 mm 0 mps 761 mmHg 48%
    09:00 +18°C° 0 mm 1 mps 761 mmHg 43%
    10:00 +20°C° 0 mm 1 mps 761 mmHg 38%
    11:00 +21°C° 0 mm 2 mps 761 mmHg 33%
    12:00 +21°C° 0 mm 2 mps 760 mmHg 32%
    13:00 +23°C° 0 mm 2 mps 760 mmHg 30%
    14:00 +24°C° 0 mm 2 mps 760 mmHg 29%
    15:00 +21°C° 0 mm 2 mps 760 mmHg 33%
    16:00 +21°C° 0 mm 1 mps 759 mmHg 37%
    17:00 +19°C° 0 mm 1 mps 759 mmHg 41%
    18:00 +18°C° 0 mm 1 mps 759 mmHg 43%
    19:00 +18°C° 0 mm 1 mps 759 mmHg 45%
    20:00 +16°C° 0 mm 1 mps 760 mmHg 48%
    21:00 +16°C° 0 mm 1 mps 760 mmHg 49%
    22:00 +15°C° 0 mm 1 mps 760 mmHg 50%
    23:00 +15°C° 0 mm 1 mps 760 mmHg 51%

    Day after tomorrow, 25 October, Friday

    Time Temperature Precipitation Wind Pressure Humidity
    00:00 +15°C° 0 mm 1 mps 760 mmHg 52%
    01:00 +14°C° 0 mm 1 mps 760 mmHg 54%
    02:00 +14°C° 0 mm 1 mps 760 mmHg 55%
    03:00 +14°C° 0 mm 1 mps 759 mmHg 56%
    04:00 +13°C° 0 mm 1 mps 759 mmHg 58%
    05:00 +13°C° 0 mm 1 mps 759 mmHg 60%
    06:00 +14°C° 0 mm 1 mps 759 mmHg 58%
    07:00 +15°C° 0 mm 1 mps 760 mmHg 57%
    08:00 +16°C° 0 mm 1 mps 760 mmHg 55%
    09:00 +18°C° 0 mm 1 mps 760 mmHg 51%
    10:00 +20°C° 0 mm 1 mps 760 mmHg 47%
    11:00 +22°C° 0 mm 1 mps 760 mmHg 43%
    12:00 +23°C° 0 mm 1 mps 760 mmHg 42%
    13:00 +23°C° 0 mm 1 mps 760 mmHg 42%
    14:00 +24°C° 0 mm 1 mps 760 mmHg 41%
    15:00 +22°C° 0 mm 1 mps 759 mmHg 45%
    16:00 +21°C° 0 mm 1 mps 759 mmHg 50%
    17:00 +20°C° 0 mm 1 mps 759 mmHg 54%
    18:00 +19°C° 0 mm 1 mps 759 mmHg 58%
    19:00 +18°C° 0 mm 1 mps 760 mmHg 61%
    20:00 +18°C° 0 mm 1 mps 760 mmHg 64%
    21:00 +16°C° 0 mm 1 mps 760 mmHg 66%
    22:00 +16°C° 0 mm 1 mps 760 mmHg 67%
    23:00 +15°C° 0 mm 1 mps 760 mmHg 68%

    26 October, Saturday

    Time Temperature Precipitation Wind Pressure Humidity
    00:00 +15°C° 0 mm 1 mps 760 mmHg 69%
    01:00 +14°C° 0 mm 1 mps 760 mmHg 69%
    02:00 +14°C° 0 mm 1 mps 760 mmHg 69%
    03:00 +14°C° 0 mm 1 mps 760 mmHg 69%
    04:00 +14°C° 0 mm 1 mps 760 mmHg 69%
    05:00 +13°C° 0 mm 1 mps 761 mmHg 69%
    06:00 +14°C° 0 mm 1 mps 761 mmHg 67%
    07:00 +15°C° 0 mm 1 mps 761 mmHg 64%
    08:00 +15°C° 0 mm 1 mps 761 mmHg 61%
    09:00 +18°C° 0 mm 1 mps 761 mmHg 56%
    10:00 +20°C° 0 mm 1 mps 761 mmHg 51%
    11:00 +21°C° 0 mm 1 mps 761 mmHg 45%
    12:00 +22°C° 0 mm 1 mps 761 mmHg 44%
    13:00 +22°C° 0 mm 1 mps 761 mmHg 42%
    14:00 +21°C° 0 mm 0 mps 760 mmHg 41%
    15:00 +22°C° 0 mm 1 mps 760 mmHg 44%
    16:00 +20°C° 0 mm 1 mps 760 mmHg 48%
    17:00 +19°C° 0 mm 1 mps 760 mmHg 52%
    18:00 +18°C° 0 mm 1 mps 760 mmHg 54%
    19:00 +16°C° 0 mm 1 mps 760 mmHg 56%
    20:00 +16°C° 0 mm 1 mps 760 mmHg 58%
    21:00 +15°C° 0 mm 1 mps 760 mmHg 59%
    22:00 +15°C° 0 mm 1 mps 760 mmHg 60%
    23:00 +14°C° 0 mm 1 mps 760 mmHg 62%

    27 October, Sunday

    Time Temperature Precipitation Wind Pressure Humidity
    00:00 +14°C° 0 mm 1 mps 760 mmHg 63%
    01:00 +14°C° 0 mm 1 mps 760 mmHg 65%
    02:00 +13°C° 0 mm 1 mps 760 mmHg 66%
    03:00 +13°C° 0 mm 1 mps 760 mmHg 67%
    04:00 +13°C° 0 mm 1 mps 760 mmHg 68%
    05:00 +12°C° 0 mm 1 mps 760 mmHg 69%
    06:00 +13°C° 0 mm 1 mps 760 mmHg 66%
    07:00 +14°C° 0 mm 2 mps 760 mmHg 63%
    08:00 +15°C° 0 mm 2 mps 760 mmHg 60%
    09:00 +17°C° 0 mm 2 mps 760 mmHg 54%
    10:00 +18°C° 0 mm 2 mps 760 mmHg 48%
    11:00 +20°C° 0 mm 2 mps 760 mmHg 42%
    12:00 +21°C° 0 mm 3 mps 759 mmHg 40%
    13:00 +21°C° 0 mm 3 mps 759 mmHg 39%
    14:00 +22°C° 0 mm 3 mps 758 mmHg 37%
    15:00 +20°C° 0 mm 3 mps 758 mmHg 44%
    16:00 +18°C° 0 mm 3 mps 758 mmHg 51%
    17:00 +16°C° 0 mm 3 mps 757 mmHg 58%
    18:00 +14°C° 0 mm 3 mps 757 mmHg 62%
    19:00 +15°C° 0 mm 2 mps 757 mmHg 67%
    20:00 +14°C° 0 mm 2 mps 757 mmHg 71%
    21:00 +13°C° 0 mm 2 mps 757 mmHg 72%
    22:00 +13°C° 0 mm 2 mps 757 mmHg 74%
    23:00 +13°C° 0 mm 2 mps 757 mmHg 75%

    28 October, Monday

    Time Temperature Precipitation Wind Pressure Humidity
    00:00 +13°C° 0 mm 2 mps 757 mmHg 77%
    01:00 +12°C° 0 mm 2 mps 757 mmHg 79%
    02:00 +12°C° 0 mm 2 mps 756 mmHg 81%
    03:00 +12°C° 0 mm 2 mps 756 mmHg 82%
    04:00 +12°C° 0 mm 2 mps 756 mmHg 83%
    05:00 +10°C° 0 mm 2 mps 756 mmHg 85%
    06:00 +12°C° 0 mm 2 mps 756 mmHg 82%
    07:00 +13°C° 0 mm 2 mps 756 mmHg 80%
    08:00 +14°C° 0 mm 2 mps 756 mmHg 77%
    09:00 +16°C° 0 mm 2 mps 756 mmHg 68%
    10:00 +18°C° 0 mm 2 mps 756 mmHg 59%
    11:00 +19°C° 0 mm 3 mps 756 mmHg 50%
    12:00 +20°C° 0 mm 3 mps 755 mmHg 48%
    13:00 +21°C° 0 mm 3 mps 755 mmHg 45%
    14:00 +21°C° 0 mm 4 mps 755 mmHg 42%
    15:00 +19°C° 0 mm 4 mps 754 mmHg 51%
    16:00 +18°C° 0 mm 3 mps 754 mmHg 59%
    17:00 +16°C° 0 mm 3 mps 754 mmHg 67%
    18:00 +14°C° 0 mm 3 mps 754 mmHg 73%
    19:00 +14°C° 0 mm 3 mps 754 mmHg 80%
    20:00 +13°C° 0 mm 3 mps 754 mmHg 86%
    21:00 +13°C° 0 mm 3 mps 754 mmHg 88%
    22:00 +13°C° 0 mm 3 mps 754 mmHg 91%
    23:00 +13°C° 0 mm 3 mps 754 mmHg 93%

    29 October, Tuesday

    Time Temperature Precipitation Wind Pressure Humidity
    00:00 +12°C° 0 mm 3 mps 754 mmHg 94%
    01:00 +12°C° 0 mm 3 mps 754 mmHg 95%
    02:00 +13°C° 0 mm 2 mps 754 mmHg 96%
    03:00 +12°C° 0 mm 3 mps 754 mmHg 94%
    04:00 +12°C° 0 mm 3 mps 754 mmHg 93%
    05:00 +11°C° 0 mm 3 mps 754 mmHg 92%
    06:00 +11°C° 0 mm 4 mps 754 mmHg 87%
    07:00 +11°C° 0 mm 4 mps 755 mmHg 83%
    08:00 +10°C° 0 mm 5 mps 755 mmHg 78%
    09:00 +10°C° 0 mm 5 mps 755 mmHg 74%
    10:00 +10°C° 0 mm 5 mps 755 mmHg 69%
    11:00 +11°C° 0 mm 4 mps 755 mmHg 65%
    12:00 +11°C° 0 mm 4 mps 755 mmHg 64%
    13:00 +11°C° 0 mm 4 mps 755 mmHg 64%
    14:00 +10°C° 0 mm 3 mps 755 mmHg 63%
    15:00 +10°C° 0 mm 3 mps 755 mmHg 63%
    16:00 +10°C° 0 mm 2 mps 755 mmHg 62%
    17:00 +11°C° 0 mm 1 mps 755 mmHg 61%
    18:00 +10°C° 0 mm 2 mps 756 mmHg 59%
    19:00 +10°C° 0 mm 2 mps 756 mmHg 58%
    20:00 +10°C° 0 mm 3 mps 757 mmHg 56%
    21:00 +10°C° 0 mm 3 mps 757 mmHg 54%
    22:00 +10°C° 0 mm 3 mps 757 mmHg 53%
    23:00 +9°C° 0 mm 3 mps 757 mmHg 52%
    Show more